Content
SEND FEEDBACK

Daily
Averages
Monthly
Summary
United States of America

UPI, GUAM


Home > North America > United States > Guam
Elevation: 53 feet     Latitude: 13 34N     Longitude: 144 55E

WEATHER
 
SELECT A DAY
Number of Records: 215,487;   Date Range: 1/1/95 - 12/16/14
 
SHARE

PRINT THIS DATA

[ ← Previous Day ]
WEATHER ALMANAC - NOVEMBER 13, 2013
[ Next Day → ]
[ °C ]   °F
Weather ElementAverageHighLow
Temperature81.8 °F86 °F (9:54 am)78.1 °F (4:54 am)
Dewpoint73.4 °F75.9 °F (11:54 am)71.1 °F (11:54 pm)
Humidity75.8 %88 % (6:54 am)65 % (1:54 pm)
Barometer29.83 in29.89 in (9:54 pm)29.78 in (1:54 pm)
Wind Speed8.3 mph12.7 mph (12:54 pm)
Wind Gust17.3 mph (2:54 pm)
Weather ElementAverage
Visibility9.8 mi
Wind DirectionENE (68.7 °)

Weather ElementTotal
Precipitation---
Cooling Degree Days17.1 (Base 65)
Growing Degree Days32.1 (Base 50)
Averaged from 23 records on November 13, 2013
WEATHER CONDITIONS BREAKOUT
WIND DIRECTION BREAKOUT
WEATHER BY HOUR - NOVEMBER 13, 2013
[ °C ]   °F
Local TimeTemperatureDewpointHumidityBarometerVisibilityWind DirectionWind SpeedGust SpeedPrecipitationEventsConditions
1:54 AM80.1 °F73.9 °F81 %29.82 in10.0 miENE (70°)6.9 mphClear
2:54 AM80.1 °F73.9 °F81 %29.80 in10.0 miENE (70°)9.2 mphPartly Cloudy
3:54 AM79.0 °F73.0 °F82 %29.80 in10.0 miEast (80°)8.1 mphClear
4:54 AM78.1 °F73.0 °F84 %29.80 in10.0 miEast (90°)4.6 mphClear
5:54 AM79.0 °F73.0 °F82 %29.82 in10.0 miENE (70°)6.9 mphPartly Cloudy
6:54 AM79.0 °F75.0 °F88 %29.83 in10.0 miENE (60°)6.9 mphPartly Cloudy
7:54 AM82.9 °F73.9 °F74 %29.85 in10.0 miEast (90°)8.1 mphScattered Clouds
8:54 AM84.0 °F72.0 °F67 %29.86 in10.0 miEast (80°)10.4 mphPartly Cloudy
9:54 AM86.0 °F73.9 °F67 %29.87 in10.0 miEast (80°)9.2 mphClear
10:54 AM82.0 °F75.0 °F79 %29.85 in6.0 miNE (50°)6.9 mph0.00 inRainLight Rain
11:54 AM84.0 °F75.9 °F76 %29.82 in10.0 miEast (90°)8.1 mph0.00 inMostly Cloudy
12:54 PM86.0 °F73.9 °F67 %29.80 in10.0 miEast (80°)12.7 mphScattered Clouds
1:54 PM86.0 °F73.0 °F65 %29.78 in10.0 miEast (80°)12.7 mphPartly Cloudy
2:54 PM86.0 °F75.0 °F70 %29.78 in10.0 miENE (70°)11.5 mph17.3 mphScattered Clouds
3:54 PM84.9 °F73.9 °F69 %29.79 in10.0 miEast (80°)11.5 mphPartly Cloudy
4:54 PM84.9 °F73.0 °F67 %29.81 in10.0 miENE (70°)9.2 mphMostly Cloudy
5:54 PM82.0 °F73.0 °F74 %29.81 in10.0 miENE (60°)6.9 mphScattered Clouds
6:54 PM80.1 °F73.0 °F79 %29.83 in10.0 miNE (40°)5.8 mphScattered Clouds
7:54 PM79.0 °F73.0 °F82 %29.86 in10.0 miNE (50°)4.6 mphScattered Clouds
8:54 PM81.0 °F72.0 °F74 %29.88 in10.0 miENE (60°)8.1 mphClear
9:54 PM80.1 °F72.0 °F76 %29.89 in10.0 miNE (50°)8.1 mphClear
10:54 PM78.1 °F72.0 °F81 %29.88 in10.0 miENE (60°)5.8 mphClear
11:54 PM78.1 °F71.1 °F79 %29.88 in10.0 miNE (50°)9.2 mphMostly Cloudy
Hourly data recorded from PGUM, located miles away from Upi, Guam







STORIES FROM OUR PARTNERS